Location: ??????
(30.0081°N, 31.2109°E)
Time: 07:32:14
(UTC+00:00)

SeaSat 1 - Pass Details

Date: 03 March 2021
Orbit: 744 x 747 km, 108.0° (Epoch: 15 April)

Event Time Altitude Azimuth Distance (km) Brightness Sun altitude
Rises 16:20:17 0° 27° (NNE) 3,192 5.4 -6.1°
Reaches altitude 10° 16:22:35 10° 31° (NNE) 2,265 4.6 -6.6°
Maximum altitude 16:27:28 63° 112° (ESE) 832 2.5 -7.7°
Drops below altitude 10° 16:32:19 10° 193° (SSW) 2,254 5.1 -8.7°
Sets 16:34:36 0° 197° (SSW) 3,175 6.0 -9.2°
